KC5MK Weather Reports


time (UTC)temp
C
wind
direction
speed
KPH
gust
KPH
rain 1hr
cm
rain 24hr
cm
rain mn
cm
humidity
%
barometer
mb
20260507023030 13 72 0.0 4.8 0.00 0.00 0.00 76 1016.1
20260507021527 14 73 3.2 8.0 0.00 0.00 0.00 75 1016.1
20260507020027 14 27 3.2 9.7 0.00 0.00 0.00 74 1015.9
20260507014542 15 91 4.8 12.9 0.00 0.00 0.00 73 1015.6
20260507013025 15 93 3.2 11.3 0.00 0.00 0.00 73 1015.3
20260507011528 15 61 3.2 9.7 0.00 0.00 0.00 72 1014.9
20260507010027 15 86 3.2 16.1 0.00 0.00 0.00 71 1014.6
20260507004525 16 92 6.4 17.7 0.00 0.00 0.00 69 1014.4
20260507003023 16 91 6.4 12.9 0.00 0.00 0.00 69 1014.2
20260507001527 16 79 1.6 9.7 0.00 0.00 0.00 68 1014.1
20260507000032 17 94 1.6 9.7 0.00 0.00 0.00 67 1013.9
20260506234523 17 73 8.0 16.1 0.00 0.00 0.00 65 1013.8
20260506233023 17 54 0.0 16.1 0.00 0.00 0.00 66 1013.5
20260506231524 17 81 8.0 16.1 0.00 0.00 0.00 64 1013.4
20260506230022 18 4 1.6 11.3 0.00 0.00 0.00 65 1013.1
20260506224521 18 19 3.2 14.5 0.00 0.00 0.00 63 1013.0
20260506223020 19 331 1.6 4.8 0.00 0.00 0.00 62 1013.0
20260506221521 19 354 0.0 6.4 0.00 0.00 0.00 62 1012.8
20260506220023 19 107 1.6 9.7 0.00 0.00 0.00 63 1012.7
20260506214521 19 45 8.0 19.3 0.00 0.00 0.00 61 1012.5
20260506213018 20 50 0.0 6.4 0.00 0.00 0.00 58 1012.6
20260506211518 20 12 0.0 8.0 0.00 0.00 0.00 59 1012.9
20260506210016 20 77 1.6 6.4 0.00 0.00 0.00 59 1013.0
20260506204518 20 93 1.6 11.3 0.00 0.00 0.00 60 1013.0
20260506203011 19 78 3.2 9.7 0.00 0.00 0.00 63 1013.4
20260506201513 18 102 1.6 14.5 0.00 0.00 0.00 62 1013.5
20260506200011 18 47 4.8 12.9 0.00 0.00 0.00 62 1013.5
20260506194515 18 75 3.2 12.9 0.00 0.00 0.00 62 1013.5
20260506193009 18 240 4.8 8.0 0.00 0.00 0.00 59 1013.5
20260506191507 18 323 1.6 9.7 0.00 0.00 0.00 64 1013.0
20260506190005 17 97 1.6 17.7 0.00 0.00 0.00 64 1013.2
20260506184503 17 316 3.2 14.5 0.00 0.00 0.00 64 1013.5
20260506183101 17 319 3.2 9.7 0.00 0.00 0.00 65 1013.6
20260506183002 17 333 3.2 9.7 0.00 0.00 0.00 66 1013.6
20260506181502 17 16 3.2 11.3 0.00 0.00 0.00 64 1013.6
20260506180105 16 72 9.7 19.3 0.00 0.00 0.00 66 1013.5
20260506174557 16 325 4.8 24.1 0.00 0.00 0.00 68 1013.7
20260506173058 15 326 3.2 19.3 0.00 0.00 0.00 68 1014.0
20260506171558 15 334 4.8 19.3 0.00 0.00 0.00 69 1014.1
20260506170104 15 308 4.8 16.1 0.00 0.00 0.00 70 1014.0
20260506164551 13 94 4.8 22.5 0.00 0.00 0.00 71 1013.9
20260506163105 13 41 3.2 17.7 0.00 0.00 0.00 74 1014.2
20260506161548 12 46 6.4 17.7 0.00 0.00 0.00 74 1014.0
20260506160047 12 79 4.8 11.3 0.00 0.00 0.00 76 1013.9
20260506154605 12 116 3.2 14.5 0.00 0.00 0.00 76 1013.3
20260506153051 11 84 1.6 9.7 0.00 0.00 0.00 77 1014.5
20260506151547 11 71 1.6 8.0 0.00 0.00 0.00 77 1015.4
20260506150042 11 70 0.0 4.8 0.00 0.00 0.00 77 1015.6
20260506144539 11 53 0.0 14.5 0.00 0.00 0.00 79 1014.5
20260506143048 11 8 1.6 12.9 0.00 0.00 0.00 79 1014.2
20260506141542 11 73 4.8 12.9 0.00 0.00 0.00 79 1014.0
20260506140037 11 74 0.0 3.2 0.00 0.00 0.00 82 1014.3
20260506134535 10 272 0.0 6.4 0.00 0.00 0.00 82 1014.3
20260506133033 10 54 1.6 14.5 0.00 0.00 0.00 83 1013.7
20260506131531 10 57 3.2 16.1 0.00 0.00 0.00 84 1013.4
20260506130030 10 110 3.2 14.5 0.00 0.00 0.00 84 1013.0
20260506124528 10 85 1.6 8.0 0.00 0.00 0.00 85 1012.7
20260506123032 10 39 0.0 11.3 0.00 0.00 0.00 85 1012.7
20260506121530 10 91 3.2 11.3 0.00 0.00 0.00 85 1012.5
20260506120027 10 48 1.6 9.7 0.00 0.00 0.00 87 1012.5
20260506114532 10 332 1.6 6.4 0.00 0.00 0.00 86 1012.5
20260506113023 10 285 1.6 6.4 0.00 0.00 0.00 86 1012.5
20260506111520 10 72 1.6 11.3 0.00 0.00 0.00 85 1011.8
20260506110018 10 84 3.2 12.9 0.00 0.00 0.00 86 1011.3
20260506104518 10 336 3.2 8.0 0.00 0.00 0.00 84 1011.4
20260506103013 11 321 1.6 9.7 0.00 0.00 0.00 81 1011.0
20260506101510 11 310 3.2 8.0 0.00 0.00 0.00 79 1011.1
20260506100008 11 25 1.6 6.4 0.00 0.00 0.00 79 1010.7
20260506094504 11 4 1.6 12.9 0.00 0.00 0.00 79 1010.6
20260506093002 12 66 1.6 4.8 0.00 0.00 0.00 79 1010.2
20260506091559 12 104 0.0 6.4 0.00 0.00 0.00 78 1009.8
20260506090059 12 324 0.0 6.4 0.00 0.00 0.00 78 1009.7
20260506084555 12 307 1.6 6.4 0.00 0.00 0.00 78 1009.6
20260506083102 12 51 0.0 3.2 0.00 0.00 0.00 78 1009.4
20260506081552 12 97 0.0 4.8 0.00 0.00 0.00 77 1009.4
20260506073049 13 265 0.0 4.8 0.00 0.00 0.00 78 1009.4
20260506071551 13 93 0.0 4.8 0.00 0.00 0.00 78 1009.5
20260506061542 13 89 4.8 14.5 0.00 0.00 0.00 78 1008.7
20260506044542 13 42 1.6 9.7 0.00 0.00 0.00 78 1009.0
20260506043029 14 110 0.0 11.3 0.00 0.00 0.00 79 1009.0
20260506041528 14 328 0.0 8.0 0.00 0.00 0.00 79 1008.8
20260506040048 15 343 0.0 9.7 0.00 0.00 0.00 80 1008.8
20260506034527 15 11 0.0 4.8 0.00 0.00 0.00 79 1008.6
20260506033023 15 324 1.6 6.4 0.00 0.00 0.00 79 1008.5
20260506031538 15 337 1.6 6.4 0.00 0.00 0.00 79 1008.5
20260506030020 15 349 0.0 8.0 0.00 0.00 0.00 79 1007.8
20260506024520 15 330 1.6 4.8 0.00 0.00 0.00 79 1007.6